#timestamp,LO_Frequency,Hit,StdDev 
1644224415.3,286047000.9,N
1644224435.1,286047000.4,N
1644224455.9,286047003.6,N
1644224475.7,286047004.5,N
1644224495.6,286047005.2,N
1644224515.4,286047005.1,N
1644224535.2,286047003.4,N
1644224555.1,286047004.1,N
1644224556.0,286047004.1,N
1644224575.8,286047000.9,N
1644224595.6,286046998.0,N
1644224615.5,286046998.0,N
1644224635.3,286046996.6,N
1644224655.2,286046996.9,N
1644224675.9,286047000.1,N
1644224695.7,286047001.5,N
1644224715.6,286047002.3,N
1644224735.4,286047004.0,N
1644224755.2,286047002.8,N
1644224775.1,286047002.3,N
1644224776.0,286047002.3,N
1644224795.8,286046998.2,N
1644224815.7,286046995.3,N
1644224835.5,286046998.3,N
1644224855.3,286047001.0,N
1644224875.2,286046999.8,N
1644224895.0,286046998.3,N
1644224895.9,286046998.3,N
1644224915.8,286046995.3,N
1644224935.6,286046995.9,N
1644224955.4,286046996.2,N
1644224975.3,286046997.7,N
1644224995.1,286047002.8,N
1644225015.8,286047000.1,N
1644225035.7,286047001.9,N
1644225055.5,286047005.3,N
1644225075.4,286047005.6,N
1644225095.2,286047005.4,N
1644225115.0,286047001.6,N
1644225115.9,286047001.6,N
1644225135.8,286047000.8,N
1644225155.6,286047000.4,N
1644225175.4,286046998.6,N
1644225195.3,286046996.5,N
1644225215.1,286047000.5,N
1644225235.9,286047000.2,N
1644225255.7,286046998.8,N
1644225275.5,286047002.2,N
1644225295.4,286047002.3,N
1644225315.2,286047002.3,N
1644225335.0,286047001.5,N
1644225335.9,286047001.5,N
1644225355.8,286047004.0,N
1644225375.6,286047002.5,N
1644225395.5,286047002.8,N
1644225415.3,286047000.5,N
1644225435.1,286046999.2,N
1644225455.9,286046997.2,N
1644225475.7,286046996.6,N
1644225495.5,286047001.2,N
1644225515.4,286047001.1,N
1644225535.2,286047000.3,N
1644225555.1,286047001.2,N
1644225556.0,286047001.2,N
1644225575.8,286046996.5,N
1644225595.6,286046995.2,N
1644225615.5,286046995.7,N
1644225635.3,286046997.6,N
1644225655.1,286046995.2,N
1644225675.9,286046996.3,N
1644225695.7,286046996.4,N
1644225715.6,286046995.4,N
1644225735.4,286046995.9,N
1644225755.2,286046994.1,N
1644225775.1,286046995.3,N
1644225776.0,286046995.3,N
1644225795.8,286046995.2,N
1644225815.7,286046996.6,N
1644225835.5,286046999.0,N
1644225855.3,286047001.2,N
1644225875.2,286047001.9,N
1644225895.0,286047000.2,N
1644225895.9,286047000.2,N
1644225915.8,286047001.0,N
1644225935.6,286046999.6,N
1644225955.4,286046996.8,N
1644225975.3,286046998.1,N
1644225995.1,286047000.8,N
1644226015.8,286046998.5,N
1644226035.7,286046998.3,N
1644226055.5,286046999.8,N
1644226075.4,286047002.5,N
1644226095.2,286047001.4,N
1644226115.0,286047002.5,N
1644226115.9,286047002.5,N
1644226135.8,286047002.4,N
1644226155.6,286047002.3,N
1644226175.4,286047001.0,N
1644226195.3,286047001.2,N
1644226215.1,286046999.5,N
1644226235.9,286046999.5,N
1644226255.7,286046997.8,N
1644226275.5,286046999.1,N
1644226295.4,286046997.1,N
1644226315.2,286046995.3,N
1644226335.0,286046995.6,N
1644226335.9,286046995.6,N
1644226355.8,286046995.2,N
1644226375.6,286046997.1,N
1644226395.5,286046998.3,N
1644226415.3,286046999.8,N
1644226435.1,286047002.5,N
1644226455.9,286047003.5,N
1644226475.7,286047002.6,N
1644226495.5,286046999.7,N
1644226515.4,286046998.1,N
1644226535.2,286046998.2,N
1644226555.1,286047000.5,N
1644226556.0,286047000.5,N
1644226575.8,286046999.1,N
1644226595.6,286046999.8,N
1644226615.5,286047001.2,N
1644226635.3,286046998.5,N
1644226655.1,286046998.1,N
1644226675.9,286046998.6,N
1644226695.7,286047000.4,N
1644226715.6,286047003.8,N
1644226735.4,286047001.8,N
1644226755.2,286047002.6,N
1644226775.1,286047005.9,N
1644226776.0,286047005.9,N
1644226795.8,286047004.1,N
1644226815.7,286047001.6,N
1644226835.5,286047002.7,N
1644226855.3,286046998.8,N
1644226875.2,286046998.4,N
1644226895.0,286046998.5,N
1644226895.9,286046998.5,N
1644226915.8,286046998.4,N
1644226935.6,286046997.0,N
1644226955.4,286046999.6,N
1644226975.3,286046997.7,N
1644226995.1,286046999.2,N
1644227015.8,286046998.7,N
1644227035.7,286046999.9,N
1644227055.5,286046999.8,N
1644227075.4,286047001.7,N
1644227095.2,286047004.4,N
1644227115.0,286047003.0,N
1644227115.9,286047003.0,N
1644227135.8,286047005.1,N
1644227155.6,286047009.0,Y
1644227175.4,286047004.5,P
1644227195.3,286047004.7,N
1644227215.1,286047003.4,N
1644227235.9,286047004.7,Y
1644227255.7,286047000.4,P
1644227275.5,286046999.4,N
1644227295.4,286046999.5,N
1644227315.2,286046998.8,N
1644227335.1,286047001.1,N
1644227336.0,286047001.1,N
1644227355.8,286046994.9,Y
1644227375.6,286046994.0,P
1644227395.5,286046993.7,N
1644227415.3,286046997.9,N
1644227435.2,286046996.1,N
1644227455.9,286046993.9,N
1644227475.7,286046992.9,N
1644227495.6,286046992.1,Y
1644227515.4,286046998.4,P
1644227535.2,286046996.8,N
1644227555.1,286046999.6,N
1644227556.0,286046999.6,N
1644227575.8,286047003.2,N
1644227595.7,286047005.6,N
1644227615.5,286047005.4,N
1644227635.3,286047003.4,N
1644227655.2,286047001.5,N
1644227675.0,286047002.7,N
1644227675.9,286047002.7,N
1644227695.8,286047001.0,N
1644227715.6,286047001.1,N
1644227735.4,286046998.1,N
1644227755.3,286047000.2,N
1644227775.1,286047003.9,N
1644227795.8,286047001.3,N
1644227815.7,286047009.1,Y
1644227835.5,286047007.5,P
1644227855.4,286047005.0,N
1644227875.2,286047003.3,N
1644227895.0,286047003.5,N
1644227895.9,286047003.5,N
1644227915.8,286047004.1,N
1644227935.6,286047002.1,N
1644227955.5,286047002.4,N
1644227975.3,286047004.3,N
1644227995.1,286047002.0,N
